This is the latest recevied weather packets stored in our database for station/object EA7KZ-10. If no packets are shown the sender has not sent any weather packets the latest 10 day(s).
| Time | Temp. | Humidity | Pressure | Rain* | Wind** | Luminosity | Snow |
|---|---|---|---|---|---|---|---|
| 1778084400 | 21.11° C | 31% | 1008.6 hPa | - | - | - | - |
| 1778083800 | 21.67° C | 31% | 1008.7 hPa | - | - | - | - |
| 1778083200 | 21.67° C | 31% | 1008.6 hPa | - | - | - | - |
| 1778082600 | 21.67° C | 31% | 1008.6 hPa | - | - | - | - |
| 1778082000 | 21.67° C | 31% | 1008.6 hPa | - | - | - | - |
| 1778081400 | 21.67° C | 31% | 1008.8 hPa | - | - | - | - |
| 1778080800 | 21.67° C | 32% | 1008.9 hPa | - | - | - | - |
| 1778080200 | 21.11° C | 31% | 1008.9 hPa | - | - | - | - |
| 1778079600 | 21.11° C | 32% | 1009.1 hPa | - | - | - | - |
| 1778079000 | 21.11° C | 31% | 1009.2 hPa | - | - | - | - |
| 1778078400 | 21.11° C | 32% | 1009.3 hPa | - | - | - | - |
| 1778077800 | 21.11° C | 32% | 1009.5 hPa | - | - | - | - |
| 1778077201 | 21.11° C | 31% | 1009.5 hPa | - | - | - | - |
| 1778076600 | 21.11° C | 32% | 1009.7 hPa | - | - | - | - |
| 1778076000 | 21.11° C | 32% | 1009.8 hPa | - | - | - | - |
| 1778075400 | 21.11° C | 33% | 1009.8 hPa | - | - | - | - |
| 1778074800 | 20.56° C | 32% | 1009.8 hPa | - | - | - | - |
| 1778074200 | 21.11° C | 33% | 1010 hPa | - | - | - | - |
| 1778073600 | 20.56° C | 33% | 1010.1 hPa | - | - | - | - |
| 1778073000 | 20.56° C | 33% | 1010.1 hPa | - | - | - | - |
| 1778072400 | 20.56° C | 33% | 1010.3 hPa | - | - | - | - |
| 1778071800 | 20° C | 33% | 1010.4 hPa | - | - | - | - |
| 1778071200 | 20° C | 32% | 1010.4 hPa | - | - | - | - |
| 1778070600 | 20° C | 33% | 1010.6 hPa | - | - | - | - |
| 1778070000 | 20° C | 33% | 1010.7 hPa | - | - | - | - |
* Rain since midnight (hover to see other rain measurements)
** Current wind speed in m/s (hover to see current wind gust speed)